Regional Weather Roundup
Issued by NWS Charleston, SC

Current Version | Previous Version | Graphics & Text | Print | Product List | Glossary On
Versions: 1 2 3 4 5 6 7 8 9 10 11 12 13 14 15 16 17 18 19 20 21 22 23 24 25 26 27 28 29 30 31 32 33 34 35 36 37 38 39 40 41 42 43 44 45 46 47 48 49 50
000
ASUS42 KCHS 290126
RWRCHS
REGIONAL WEATHER ROUNDUP
NATIONAL WEATHER SERVICE CHARLESTON SC
800 PM EST WED JAN 28 2015

NOTE: "FAIR" INDICATES FEW OR NO CLOUDS BELOW 12,000 FEET WITH NO
SIGNIFICANT WEATHER AND/OR OBSTRUCTIONS TO VISIBILITY.

NOT ALL STATIONS ARE QUALITY CONTROLLED BY THE NATIONAL
WEATHER SERVICE. USE DATA WITH CAUTION...ESPECIALLY
DEWPOINT OBSERVATIONS.

SCZ027-030-031-034>040-042>050-290200-
...SOUTHEAST SOUTH CAROLINA...

CITY           SKY/WX    TMP DP  RH WIND       PRES   REMARKS
N CHARLESTON   CLEAR     36  25  64 CALM      30.32R
WATERFRONT PRK   N/A     43 N/A N/A CALM        N/A
MOUNT PLEASANT LGT RAIN N/A N/A N/A CALM      30.32R
PINOPOLIS      NOT AVBL
MONCKS CORNER  FAIR      36  30  80 CALM      30.32R
SUMMERVILLE    NOT AVBL
BEAUFORT MCAS  CLEAR     38  28  67 CALM      30.32R
BEAUFORT ARPT  FAIR      37  32  81 E3        30.32R
HILTON HEAD IS CLEAR     37  30  75 MISG      30.33R
WALTERBORO     CLEAR     34  23  64 CALM      30.33R
ALLENDALE      FAIR      36  27  69 CALM      30.31R

...SOUTHERN MIDLANDS AND PEE DEE...

CITY           SKY/WX    TMP DP  RH WIND       PRES   REMARKS
GEORGETOWN     NOT AVBL
KINGSTREE      NOT AVBL
ORANGEBURG     CLEAR     36  25  64 CALM      30.31R
BARNWELL       FAIR      34  27  75 CALM      30.32R
AIKEN          FAIR      34  27  75 CALM      30.33R
MANNING        FAIR      32  28  86 CALM      30.32R
COLUMBIA       CLEAR     36  25  64 CALM      30.30R
SUMTER         CLEAR     36  24  62 CALM      30.29R
FLORENCE       FAIR      35  25  66 CALM      30.31R
MYRTLE BEACH   CLEAR     36  21  55 CALM      30.33R
N MYRTLE BEACH FAIR      33  24  69 CALM      30.31R

$$

GAZ063-065-086>088-099>101-113>116-118-119-134>141-150-290200-
...SOUTHEAST GEORGIA...

CITY           SKY/WX    TMP DP  RH WIND       PRES   REMARKS
SAVANNAH ARPT  CLEAR     39  26  59 CALM      30.32R
HUNTER AAF     CLEAR     39  25  55 CALM      30.29R
FORT STEWART   CLEAR     36  29  74 CALM      30.30R
STATESBORO     CLEAR     32  30  94 CALM      30.31R
SYLVANIA       CLEAR     35  31  85 CALM      30.32R
CLAXTON        FAIR      34  32  93 CALM      30.31R

...CSRA...CENTRAL AND FAR SOUTHEAST GEORGIA...

CITY           SKY/WX    TMP DP  RH WIND       PRES   REMARKS
THOMSON        CLEAR     37  30  77 CALM      30.33S
AUGUSTA-BUSH   CLEAR     32  23  69 CALM      30.30R
AUGUSTA-DANIEL   N/A     46  19  34 CALM      30.30
SWAINSBORO     FAIR      37  25  60 CALM      30.31R
VIDALIA        CLEAR     39  30  70 CALM      30.30R
EASTMAN        FAIR      39  36  87 CALM      30.31F
HAZLEHURST     FAIR      40  33  76 E3        30.29R
ALMA           CLEAR     37  32  82 CALM      30.29R
WAYCROSS       CLEAR     42  37  83 CALM      30.30R
JESUP          FAIR      39  36  87 CALM      30.31R
BAXLEY         FAIR      37  34  87 CALM      30.30R
BRUNSWICK      CLEAR     37  32  81 CALM      30.32R
SAINT SIMONS   CLEAR     44  32  62 NE5       30.30R

$$

SCZ027-028-034-036>038-045-046-048>050-GAZ119-141-290200-
...LAKE AND SUPPLEMENTAL COASTAL OBSERVATIONS...

STATION/POSITION TIME  TEMP    WIND        PRES    WAVE   SWELL
                       AIR SEA DIR/SP/G            HT/PER HT/PER/DIR
                 (UTC) (F)     (DEG/KT/KT) (MB)    (FT/S) (FT/S/D)
UPR LAKE MARION  NOT AVBL
WINYAH BAY       0000   37     310/  2     1025.0
LAKE MURRAY      0000   43        CALM     1024.7R
ACE BASIN NERRS  NOT AVBL
FORT PULASKI     0100   47 52   40/  7/  8 1026.8R
SAPELO ISLAND    0100   43      70/  5     1026.0R

$$

ANZ835-935-AMZ111-154-330-350-352-354-370-450-454-472-290200-
...C-MAN AND BUOY OBSERVATIONS...

STATION/POSITION TIME  TEMP    WIND        PRES    WAVE   SWELL
                       AIR SEA DIR/SP/G            HT/PER HT/PER/DIR
                 (UTC) (F)     (DEG/KT/KT) (MB)    (FT/S) (FT/S/D)
BUOY 41004       0050   49 66  360/ 12/ 17 1025.9R   4/13   3/13
BUOY 41008       0050   48 53   40/ 12/ 14 1025.9R   3/ 6   3/ 70/ 6
FOLLY BEACH CMAN 0100   42     310/  3/  3 1027.0R
CAPERS NEARSHORE 0000   45     320/ 10/ 12   N/A
FRIPP NEARSHORE  0000   47      30/  8/ 10 1025.4R


STATION/POSITION TIME  TEMP    WIND        PRES    WAVE   SWELL
                       AIR SEA DIR/SP/G            HT/PER HT/PER/DIR
                 (UTC) (F)     (DEG/KT/KT) (MB)    (FT/S) (FT/S/D)
5E ST. MARYS GA  NOT AVBL
FRYING PAN BUOY  0050   46 63  360/ 16/ 19 1026.4R   4/ 9   3/110/ 9
BUOY 41025       0050   41     330/ 17/ 21 1024.5R   6/13   5/ 40/13
CAPE LOOKOUT NC  0100   40     340/ 11/ 13 1025.5R
BUOY 41002       0050   57 72  340/ 21/ 27 1021.3R  11/ 8   5/ 20/11
BUOY 41010       0020   60 76  340/ 19/ 27 1022.7R
ST AUGUSTINE FL  0100   50      30/ 14/ 16 1026.2R


$$


USA.gov is the U.S. government's official web portal to all federal, state and local government web resources and services.